Location: Street
(51.1247°N, 2.7429°W)
Time: 14:18:29
(UTC+00:00)

SR - Pass Details

Date: 05 December 2020
Orbit: 575 x 880 km, 66.7° (Epoch: 25 January)

Event Time Altitude Azimuth Distance (km) Brightness Sun altitude
Rises 03:23:32 0° 308° (NW) 3,247 - -41.8°
Reaches altitude 10° 03:27:10 10° 283° (WNW) 2,380 - -41.2°
Maximum altitude 03:29:41 13° 255° (WSW) 2,186 - -40.8°
Drops below altitude 10° 03:32:16 10° 228° (SW) 2,451 - -40.5°
Sets 03:36:08 0° 203° (SSW) 3,425 - -39.9°
